{"data":{"norad_id":69658,"epoch":"2026-09-19T20:11:01.407264Z","epoch_age_seconds":78596,"freshness":"FRESH","line1":"1 69658U 26143K   26262.84098851  .00011203  00000+0  34863-3 0  9994","line2":"2 69658  97.2850 306.0713 0000581  97.0135 263.1174 15.33464301 15040","mean_motion":15.33464301,"eccentricity":5.81e-5,"inclination_deg":97.285,"raan_deg":306.0713,"arg_perigee_deg":97.0135,"mean_anomaly_deg":263.1174,"bstar":0.00034863,"rev_number":1504,"period_min":93.905022703231,"perigee_km":465.08813440216,"apogee_km":465.88336336558,"semimajor_km":6843.6227488839,"source":"CELESTRAK","updated_at":"2026-09-20T09:00:44.248677Z"}}